Regional Weather Roundup
Issued by NWS

Home | Current Version | Previous Version | Graphics & Text | Print | Product List | Glossary On
Versions: 1 2 3 4 5 6 7 8 9 10 11 12 13 14 15 16 17 18 19 20 21 22 23 24 25 26 27 28 29 30 31 32 33 34 35 36 37 38 39 40 41 42 43 44 45 46 47 48 49 50
000
ASUS43 KLOT 180412
RWRIL

ILLINOIS REGIONAL WEATHER ROUNDUP
NATIONAL WEATHER SERVICE CHICAGO/ROMEOVILLE IL
1000 PM CST TUE JAN 17 2017

NOTE: "FAIR" INDICATES FEW OR NO CLOUDS BELOW 12,000 FEET WITH NO
SIGNIFICANT WEATHER AND/OR OBSTRUCTIONS TO VISIBILITY.

* THESE STATIONS ARE NOT UNDER NWS QUALITY CONTROL. THEY ALSO MAY NOT
  REPORT WEATHER SUCH AS PRECIPITATION OR FOG.

ILZ001-002-007-009-015-016-024-180500-
NORTHWEST ILLINOIS

CITY           SKY/WX    TMP DP  RH WIND       PRES   REMARKS
MOLINE         CLOUDY    34  32  92 W10       30.07R FOG     WCI  26
STERLING*      CLOUDY    34  33  96 W12       30.04S FOG     WCI  25
SAVANNA*       CLOUDY    34  33  95 W6        30.04S FOG     WCI  29
$$

ILZ003-004-008-010-011-017-018-180500-
NORTH CENTRAL ILLINOIS

CITY           SKY/WX    TMP DP  RH WIND       PRES   REMARKS
ROCKFORD       CLOUDY    35  33  92 W9        30.02S FOG     WCI  28
FREEPORT*      CLOUDY    33  32  98 W7        30.03R FOG     WCI  27
ROCHELLE*      CLOUDY    33  33  97 W13       30.02S FOG     WCI  24
DE KALB*       CLOUDY    34  33  97 W12G18    30.01S FOG     WCI  25
$$

ILZ005-006-012>014-019>023-180500-
NORTHEAST ILLINOIS

CITY           SKY/WX    TMP DP  RH WIND       PRES   REMARKS
CHICAGO-OHARE  DRIZZLE   35  33  92 W12       29.99R WCI  27
CHICAGO-MIDWAY DRIZZLE   34  34 100 W12G18    30.00R FOG     WCI  25
AURORA         CLOUDY    35  33  92 W12       30.01S FOG     WCI  27
LANSING*       CLOUDY    35  35 100 W10       30.01S FOG     WCI  27
JOLIET*        CLOUDY    36  35  99 W8        30.03S FOG     WCI  29
WAUKEGAN       MIX PCPN  34  33  96 VRB6      29.96S FOG     WCI  29
DUPAGE AIRPORT CLOUDY    35  32  88 W9        29.99S FOG     WCI  28
KANKAKEE*      CLOUDY    35  34  96 W12       30.04S FOG     WCI  26
WHEELING       CLOUDY    35  32  88 W8        30.00R WCI  29
MORRIS*        CLOUDY    34  33  96 W14       30.02S FOG     WCI  25
ROMEOVILLE*    CLOUDY    34  34 100 W12       30.02R FOG     WCI  25
NORTHERLY ISL    N/A     36  33  89 W8          N/A  WCI  30
$$

LMZ740>746-180500-
SOUTHERN LAKE MICHIGAN

STATION/POSITION SKY/WX   TEMP    WIND        PRES    VSBY  WAVE
                          AIR SEA DIR/SP/G                  HT/PER
                          (F)     (DEG/KT/KT) (MB)    (MI)  (FT/S)
HARRISON CRIB              37     270/ 15/ 19   N/A
BURNHAM HARBOR             36     280/  9/ 14   N/A
CALUMET HARBOR             35     230/  6/ 10 1015.4R
BURNS HARBOR               35     250/ 12/ 16 1016.6R
$$

ILZ025>027-034>036-040-047-049-050-058-095>099-180500-
WEST-CENTRAL ILLINOIS

CITY           SKY/WX    TMP DP  RH WIND       PRES   REMARKS
QUINCY         CLOUDY    37  35  92 W7        30.13R WCI  32
GALESBURG*     CLOUDY    33  33 100 W10       30.09S FOG     WCI  25
MACOMB*        CLOUDY    36  35  97 W8        30.12S FOG     WCI  29
JACKSONVILLE*  CLOUDY    37  34  88 W12       30.13S WCI  30
PITTSFIELD*    CLOUDY    38  35  88 W8        30.15S WCI  33
$$

ILZ028>032-037-038-041>044-048-051>054-059>061-180500-
CENTRAL ILLINOIS

CITY           SKY/WX    TMP DP  RH WIND       PRES   REMARKS
PONTIAC        CLOUDY    36  36 100 W13       30.06S FOG     WCI  27
BLOOMINGTON    CLOUDY    35  33  92 W13       30.07F WCI  26
DECATUR        CLOUDY    37  33  85 W18G24    30.11R WCI  27
PEORIA         CLOUDY    36  34  92 W8        30.09S WCI  30
LACON*         CLOUDY    34  34  99 W8        30.07S FOG     WCI  28
LINCOLN*       CLOUDY    38  36  94 W8G17     30.11R WCI  32
SPRINGFIELD    CLOUDY    39  35  86 W9        30.12S WCI  33
TAYLORVILLE    CLOUDY    37  34  89 W9G18     30.13S WCI  30
$$

ILZ033-039-045-046-055>057-062-063-180500-
EAST-CENTRAL ILLINOIS

CITY           SKY/WX    TMP DP  RH WIND       PRES   REMARKS
CHAMPAIGN      CLOUDY    36  33  89 W14       30.09S WCI  27
RANTOUL*       CLOUDY    37  36  95 W12       30.08S WCI  29
MATTOON        CLOUDY    37  31  78 NW14      30.11R WCI  28
PARIS*         CLOUDY    37  36  96 W20       30.11R WCI  26
$$

ILZ079-100>102-180500-
SOUTHWEST ILLINOIS

CITY           SKY/WX    TMP DP  RH WIND       PRES   REMARKS
ALTON          CLOUDY    39  36  87 W10       30.16S WCI  32
BELLEVILLE     CLOUDY    41  38  87 W5        30.15S
CAHOKIA*       CLOUDY    42  34  73 W9        30.16F
SPARTA*        CLOUDY    40  37  87 NW7       30.18S
$$

ILZ064>066-069>071-074>076-080>082-084>086-088>090-092>094-180500-
SOUTH-CENTRAL ILLINOIS

CITY           SKY/WX    TMP DP  RH WIND       PRES   REMARKS
CARBONDALE     CLOUDY    43  39  86 NW8       30.16S
CAIRO*         CLOUDY    44  41  88 SW3       30.18R
EFFINGHAM*     CLOUDY    40  38  95 W10       30.14S
MARION         CLOUDY    45  43  93 NW5       30.17S
MT. VERNON     CLOUDY    42  37  82 VRB5      30.15S
CENTRALIA*     CLOUDY    41  38  87 NW8       30.15S
SALEM*         CLOUDY    41  37  86 W10       30.15S
METROPOLIS*    CLOUDY    45  40  85 CALM      30.18R
$$

ILZ067-068-072-073-078-083-087-091-180500-
SOUTHEAST ILLINOIS

CITY           SKY/WX    TMP DP  RH WIND       PRES   REMARKS
LAWRENCEVILLE  CLOUDY    42  40  92 W12       30.13S
FLORA*         CLOUDY    42  38  84 W12       30.16R
FAIRFIELD*     CLOUDY    42  38  86 W5        30.14S
HARRISBURG*    CLOUDY    43  40  89 W8        30.16F
ROBINSON*      CLOUDY    40  37  90 W13       30.14R
CARMI*         CLOUDY    43  41  93 W8        30.14S
$$

ABBREVIATIONS USED IN REMARKS
   TC - TEMPERATURE IN CELSIUS
  WCI - WIND CHILL INDEX
   HX - HEAT INDEX
  VSB - VISIBILITY
$$




USA.gov is the U.S. government's official web portal to all federal, state and local government web resources and services.